Home > Weather > Mason > Past weeks

Flag for USA Past Weather in Mason, Ohio, USA — Yesterday and Last 2 Weeks

Now
58 °F

Clear.


Feels Like: 57 °F
Forecast: 57 / 78 °F
Wind: 6 mph from North

Location: Butler County Regional Airport

Current Time: Jun 29, 2016 at 3:27:42 AM

Latest Report: Jun 29, 2016 at 2:53 AM


Visibility: 10 mi

Pressure: 30.07 "Hg

Humidity: 84%

Dew Point: 53 °F

Location of MasonLocation

Past Weather in Mason — Graph

°F

Mason Temperature Yesterday

Maximum temperature yesterday: 83 °F (at 1:53 PM)
Minimum temperature yesterday: 61 °F (at 11:53 PM)
Average temperature yesterday: 74 °F

High & Low Weather Summary for the Past Weeks

 TemperatureHumidityPressure
High92 °F (Jun 26, 2:53 PM)100% (Jun 15, 7:53 PM)30.32 "Hg (Jun 15, 7:53 PM)
Low57 °F (Jun 29, 1:53 AM)30% (Jun 18, 4:53 PM)29.73 "Hg (Jun 16, 1:53 PM)
Average76 °F70%30.00 "Hg
* Reported Jun 14 1:53 AM — Jun 29 1:53 AM, Mason, Weather by CustomWeather, © 2016

Note: Actual official high and low records may vary slightly from our data, if they occured in-between our weather recording intervals... More about our weather records

Advertising

Mason Weather History for the Previous 24 Hours

Scroll right to see more
 ConditionsComfort  
Time TempWeatherWind HumidityBarometerVisibility
1:53 AM
Wed, Jun 29
57 °FPassing clouds.No wind83%30.07 "Hg10 mi
12:53 AM58 °FClear.3 mph84%30.07 "Hg10 mi
11:53 PM
Tue, Jun 28
61 °FClear.5 mph75%30.07 "Hg10 mi
10:53 PM65 °FClear.6 mph68%30.07 "Hg10 mi
9:53 PM68 °FSunny.9 mph63%30.05 "Hg10 mi
8:53 PM71 °FSunny.10 mph59%30.03 "Hg10 mi
7:53 PM77 °FSunny.12 mph48%30.02 "Hg10 mi
6:53 PM79 °FPassing clouds.12 mph45%30.01 "Hg10 mi
5:53 PM80 °FScattered clouds.12 mph49%30.02 "Hg10 mi
4:53 PM83 °FPartly sunny.12 mph44%30.01 "Hg10 mi
3:53 PM83 °FScattered clouds.12 mph43%30.02 "Hg10 mi
2:53 PM81 °FScattered clouds.14 mph47%30.03 "Hg10 mi
1:53 PM83 °FScattered clouds.8 mph46%30.03 "Hg10 mi
12:53 PM81 °FScattered clouds.6 mph47%30.05 "Hg10 mi
11:53 AM80 °FScattered clouds.6 mph51%30.05 "Hg10 mi
10:53 AM80 °FSunny.3 mph51%30.05 "Hg10 mi
9:53 AM77 °FSunny.3 mph60%30.06 "Hg10 mi
8:53 AM74 °FSunny.3 mph69%30.05 "Hg10 mi
7:53 AM71 °FSunny.3 mph76%30.04 "Hg10 mi
6:53 AM65 °FClear.No wind91%30.03 "Hg10 mi
5:53 AM66 °FClear.3 mph84%30.02 "Hg10 mi
4:53 AM66 °FClear.No wind87%30.01 "Hg10 mi
3:53 AM67 °FClear.No wind90%30.00 "Hg10 mi
Weather by CustomWeather, © 2016

See weather overviewHow to use our weather pages